Regional Weather Roundup
Issued by NWS

Home | Current Version | Previous Version | Text Only | Print | Product List | Glossary On
Versions: 1 2 3 4 5 6 7 8 9 10 11 12 13 14 15 16 17 18 19 20 21 22 23 24 25 26 27
000
ASUS42 KKEY 262010
RWRKEY

FLORIDA REGIONAL WEATHER ROUNDUP FOR THE FLORIDA KEYS
NATIONAL WEATHER SERVICE KEY WEST FLORIDA
400 PM EDT MON SEP 26 2016

...SOUTH FLORIDA AND THE KEYS...

CITY           SKY/WX    TMP DP  RH WIND       PRES   REMARKS
FORT MYERS     SUNNY     89  71  55 SE6       29.92F HX  95
SW REGIONAL AP MOSUNNY   89  69  51 E6        29.93F HX  93
NAPLES         CLOUDY    83  71  67 S10       29.94S
MIAMI          PTSUNNY   87  73  62 SE7       29.92F HX  94
WEST KENDALL   MOSUNNY   84  73  69 SW3       29.93S HX  90
HOMESTEAD      PTSUNNY   85  75  71 E7        29.93R HX  94
MARATHON       CLOUDY    82  72  71 VRB3      29.92F
BOCA CHICA NAS CLOUDY    81  74  79 SE5       29.91F
KEY WEST INTL  CLOUDY    81  76  84 S6        29.92F

...INTERNATIONAL WEATHER...

CITY           SKY/WX    TMP DP  RH WIND       PRES   REMARKS
NASSAU BAHAMAS PTSUNNY   86  73  66 CALM      29.95F HX  93
CANCUN MEXICO  PTSUNNY   88  79  74 SE9       29.90F HX 102
COZUMEL MEXICO PTSUNNY   86  79  79 MISG      29.91F HX  99

ADJACENT COASTAL WATERS...

STATION/POSITION TIME  SKY/WX   TEMP    WIND        PRES    WAVE
                                AIR SEA DIR/SP/G            HT/PER
                 (UTC)          (F)     (DEG/KT/KT) (MB)    (FT/S)
PULASKI SHOAL LI 2000            81     200/ 11/ 12 1013.6F
SAND KEY         1950            80     190/  9/ 10 1013.3F
LONG KEY         1900            81 85  150/  9/ 10 1014.0F
FOWEY ROCKS      1900            84 85  230/  3/  4 1014.3F

$$




USA.gov is the U.S. government's official web portal to all federal, state and local government web resources and services.